Погода в Ендовищах

Россия / Нижегородская область     55°22′33″N   45°27′25″E
темп.,
°C
ветер,
м/с
пор.,
м/с
влажн.,
%
обл.,
%
осадки,
мм/ч
давл.,
гПа
погр.,
м
15 апреля, чт
чт1500:00+11ю33870 0.0 102127
03:00+10ю22855 0.0 102010
06:00+9ю22865 0.0 102012
09:00+14ю246678 0.0 1020293
12:00+17ю2347100 0.0 1019935
15:00+18юв113989 0.0 10181467
18:00+16всв2250100 0.0 101814
21:00+13св126121 0.0 101910
16 апреля, пт
пт1600:00+10св4109544 0.0 1020258
03:00+8св6991100 0.0 1021423
06:00+7св51091100 0.0 1021492
09:00+7св61089100 0.0 1022474
12:00+8св6886100 0.0 1023597
15:00+10всв687599 0.0 1023768
18:00+10св697444 0.0 1024558
21:00+6св5117929 0.0 1025289
17 апреля, сб
сб1700:00+5св4117716 0.0 1025295
03:00+4св512805 0.0 1026277
06:00+3св512795 0.0 1027305
09:00+8всв710585 0.0 1027606
12:00+11всв78395 0.0 10271056
15:00+12всв78340 0.0 10261297
18:00+10всв58460 0.0 1026301
21:00+6св411610 0.0 1027244
18 апреля, вс
вс1800:00+4св39700 0.0 1027169
03:00+3св39790 0.0 1028163
06:00+2св397958 0.0 1028198
09:00+8св58575 0.0 1028631
12:00+11св67455 0.0 10281502
15:00+12св684275 0.0 10271997
18:00+10св6105219 0.0 1028918
21:00+6всв6126746 0.0 1031596
19 апреля, пн
пн1900:00+4всв5116656 0.0 1032444
03:00+1св4968100 0.0 1033249
06:00+1всв496783 0.0 1035314
09:00+5в67405 0.0 10361272
12:00+7всв67330 0.0 10361701
15:00+8всв56321 0.0 10361828
18:00+6всв46370 0.0 1036872
21:00+3в38490 0.0 1038159